TimePDT,TemperatureF,Dew PointF,Humidity,Sea Level PressureIn,VisibilityMPH,Wind Direction,Wind SpeedMPH,Gust SpeedMPH,PrecipitationIn,Events,Conditions,WindDirDegrees,DateUTC
12:15 AM,44.6,6.8,21,30.06,10.0,North,5.8,-,N/A,,Clear,350,2012-10-08 07:15:00
12:35 AM,44.6,10.4,25,30.07,10.0,North,3.5,-,N/A,,Clear,360,2012-10-08 07:35:00
12:55 AM,46.4,14.0,27,30.07,10.0,North,4.6,-,N/A,,Clear,10,2012-10-08 07:55:00
1:15 AM,46.4,17.6,32,30.07,10.0,North,4.6,-,N/A,,Clear,360,2012-10-08 08:15:00
1:35 AM,44.6,15.8,31,30.08,10.0,Calm,Calm,-,N/A,,Clear,0,2012-10-08 08:35:00
1:55 AM,41.0,15.8,36,30.08,10.0,North,6.9,-,N/A,,Clear,10,2012-10-08 08:55:00
2:15 AM,41.0,15.8,36,30.08,10.0,North,8.1,-,N/A,,Clear,350,2012-10-08 09:15:00
2:35 AM,44.6,23.0,43,30.08,10.0,NNW,9.2,-,N/A,,Clear,330,2012-10-08 09:35:00
2:55 AM,41.0,15.8,36,30.08,10.0,NNW,8.1,-,N/A,,Clear,340,2012-10-08 09:55:00
3:15 AM,41.0,17.6,39,30.07,10.0,North,6.9,-,N/A,,Clear,350,2012-10-08 10:15:00
3:35 AM,41.0,14.0,33,30.07,10.0,North,5.8,-,N/A,,Clear,350,2012-10-08 10:35:00
3:55 AM,41.0,21.2,45,30.07,10.0,North,4.6,-,N/A,,Clear,10,2012-10-08 10:55:00
4:15 AM,41.0,19.4,42,30.07,10.0,NNW,5.8,-,N/A,,Clear,340,2012-10-08 11:15:00
4:35 AM,41.0,23.0,49,30.07,10.0,North,6.9,-,N/A,,Partly Cloudy,350,2012-10-08 11:35:00
4:55 AM,42.8,28.4,57,30.07,10.0,NNW,5.8,-,N/A,,Partly Cloudy,340,2012-10-08 11:55:00
5:15 AM,41.0,24.8,53,30.08,10.0,North,6.9,-,N/A,,Clear,360,2012-10-08 12:15:00
5:35 AM,39.2,24.8,56,30.08,10.0,North,6.9,-,N/A,,Clear,360,2012-10-08 12:35:00
5:55 AM,39.2,23.0,52,30.08,10.0,North,6.9,-,N/A,,Clear,10,2012-10-08 12:55:00
6:15 AM,39.2,26.6,61,30.08,10.0,NNW,3.5,-,N/A,,Clear,340,2012-10-08 13:15:00
6:35 AM,39.2,26.6,61,30.08,10.0,North,6.9,-,N/A,,Clear,360,2012-10-08 13:35:00
6:55 AM,37.4,26.6,65,30.08,10.0,NE,3.5,-,N/A,,Clear,40,2012-10-08 13:55:00
7:15 AM,37.4,24.8,60,30.08,10.0,Calm,Calm,-,N/A,,Clear,0,2012-10-08 14:15:00
7:35 AM,35.6,23.0,60,30.08,10.0,West,3.5,-,N/A,,Clear,280,2012-10-08 14:35:00
7:55 AM,37.4,26.6,65,30.08,10.0,Calm,Calm,-,N/A,,Clear,0,2012-10-08 14:55:00
8:15 AM,41.0,30.2,65,30.08,10.0,NNW,3.5,-,N/A,,Clear,340,2012-10-08 15:15:00
8:35 AM,46.4,32.0,57,30.08,10.0,Calm,Calm,-,N/A,,Clear,0,2012-10-08 15:35:00
8:55 AM,48.2,32.0,54,30.08,10.0,Calm,Calm,-,N/A,,Clear,0,2012-10-08 15:55:00
9:15 AM,51.8,33.8,50,30.08,10.0,Calm,Calm,-,N/A,,Clear,0,2012-10-08 16:15:00
9:35 AM,53.6,35.6,51,30.07,10.0,Calm,Calm,-,N/A,,Clear,0,2012-10-08 16:35:00
9:55 AM,55.4,35.6,47,30.08,10.0,Calm,Calm,-,N/A,,Clear,0,2012-10-08 16:55:00
10:15 AM,57.2,32.0,38,30.07,10.0,Calm,Calm,-,N/A,,Clear,0,2012-10-08 17:15:00
10:35 AM,59.0,32.0,36,30.07,10.0,Calm,Calm,-,N/A,,Clear,0,2012-10-08 17:35:00
10:55 AM,60.8,32.0,34,30.06,10.0,Calm,Calm,-,N/A,,Clear,0,2012-10-08 17:55:00
11:15 AM,62.6,32.0,32,30.06,10.0,Calm,Calm,-,N/A,,Clear,0,2012-10-08 18:15:00
11:35 AM,64.4,28.4,26,30.06,10.0,SSE,4.6,-,N/A,,Clear,160,2012-10-08 18:35:00
11:55 AM,64.4,28.4,26,30.05,10.0,Calm,Calm,-,N/A,,Clear,0,2012-10-08 18:55:00
12:15 PM,64.4,26.6,24,30.04,10.0,SE,3.5,-,N/A,,Clear,140,2012-10-08 19:15:00
12:35 PM,66.2,24.8,21,30.04,10.0,Calm,Calm,-,N/A,,Clear,0,2012-10-08 19:35:00
1:15 PM,68.0,23.0,18,30.03,10.0,NW,3.5,-,N/A,,Clear,320,2012-10-08 20:15:00
1:35 PM,68.0,19.4,16,30.02,10.0,SSW,6.9,-,N/A,,Clear,200,2012-10-08 20:35:00
1:55 PM,68.0,21.2,17,30.01,10.0,SSE,11.5,-,N/A,,Clear,150,2012-10-08 20:55:00
2:15 PM,68.0,17.6,15,30.01,10.0,SW,5.8,-,N/A,,Clear,230,2012-10-08 21:15:00
2:35 PM,69.8,17.6,14,30.00,10.0,WSW,11.5,20.7,N/A,,Clear,250,2012-10-08 21:35:00
2:55 PM,68.0,23.0,18,30.00,10.0,West,8.1,-,N/A,,Clear,270,2012-10-08 21:55:00
3:15 PM,68.0,28.4,23,30.00,10.0,NW,18.4,24.2,N/A,,Scattered Clouds,320,2012-10-08 22:15:00
3:35 PM,66.2,30.2,26,30.00,10.0,NW,15.0,23.0,N/A,,Partly Cloudy,320,2012-10-08 22:35:00
3:55 PM,66.2,28.4,24,30.00,10.0,NW,16.1,21.9,N/A,,Partly Cloudy,310,2012-10-08 22:55:00
4:15 PM,64.4,28.4,26,30.00,10.0,NW,13.8,21.9,N/A,,Clear,310,2012-10-08 23:15:00
4:35 PM,64.4,28.4,26,30.00,10.0,NW,18.4,25.3,N/A,,Clear,310,2012-10-08 23:35:00
4:55 PM,64.4,28.4,26,30.00,10.0,NW,15.0,24.2,N/A,,Clear,310,2012-10-08 23:55:00
5:15 PM,62.6,28.4,27,30.00,10.0,NW,18.4,21.9,N/A,,Clear,310,2012-10-09 00:15:00
5:35 PM,62.6,26.6,26,30.00,10.0,WNW,13.8,26.5,N/A,,Scattered Clouds,300,2012-10-09 00:35:00
6:15 PM,62.6,28.4,27,30.01,10.0,NW,16.1,20.7,N/A,,Overcast,310,2012-10-09 01:15:00
6:35 PM,60.8,32.0,34,30.02,10.0,NW,15.0,-,N/A,,Overcast,310,2012-10-09 01:35:00
7:15 PM,59.0,32.0,36,30.03,10.0,WNW,16.1,-,N/A,,Overcast,300,2012-10-09 02:15:00
7:35 PM,59.0,32.0,36,30.05,10.0,NW,10.4,-,N/A,,Overcast,320,2012-10-09 02:35:00
7:55 PM,57.2,32.0,38,30.06,10.0,WNW,11.5,-,N/A,Rain,Light Rain,300,2012-10-09 02:55:00
8:15 PM,57.2,33.8,41,30.06,10.0,Calm,Calm,-,N/A,,Overcast,0,2012-10-09 03:15:00
8:35 PM,57.2,35.6,44,30.06,10.0,NW,6.9,-,N/A,,Overcast,310,2012-10-09 03:35:00
8:55 PM,57.2,32.0,38,30.06,10.0,West,12.7,-,N/A,,Mostly Cloudy,280,2012-10-09 03:55:00
9:15 PM,55.4,32.0,41,30.06,10.0,West,11.5,-,N/A,,Overcast,280,2012-10-09 04:15:00
9:35 PM,55.4,32.0,41,30.06,10.0,WNW,12.7,23.0,N/A,,Overcast,290,2012-10-09 04:35:00
9:55 PM,55.4,32.0,41,30.06,10.0,West,17.3,21.9,N/A,,Overcast,280,2012-10-09 04:55:00
10:15 PM,55.4,32.0,41,30.06,10.0,West,16.1,-,N/A,,Overcast,280,2012-10-09 05:15:00
10:35 PM,55.4,32.0,41,30.06,10.0,West,15.0,21.9,N/A,,Overcast,280,2012-10-09 05:35:00
10:55 PM,53.6,32.0,44,30.06,10.0,West,10.4,-,N/A,,Overcast,270,2012-10-09 05:55:00
11:15 PM,53.6,32.0,44,30.07,10.0,West,6.9,-,N/A,,Overcast,280,2012-10-09 06:15:00
11:35 PM,53.6,32.0,44,30.08,10.0,WNW,8.1,-,N/A,,Overcast,300,2012-10-09 06:35:00
11:55 PM,53.6,32.0,44,30.08,10.0,WNW,6.9,-,N/A,,Overcast,300,2012-10-09 06:55:00